TimeHST,TemperatureF,Dew PointF,Humidity,Sea Level PressureIn,VisibilityMPH,Wind Direction,Wind SpeedMPH,Gust SpeedMPH,PrecipitationIn,Events,Conditions,WindDirDegrees,DateUTC
12:56 AM,71.1,62.1,73,30.09,10.0,SSE,4.6,-,N/A,,Clear,150,2013-05-26 10:56:00
1:56 AM,72.0,62.1,71,30.06,10.0,Calm,Calm,-,N/A,,Clear,0,2013-05-26 11:56:00
2:56 AM,70.0,63.0,78,30.06,10.0,SE,3.5,-,N/A,,Clear,140,2013-05-26 12:56:00
3:56 AM,69.1,62.1,78,30.06,10.0,Calm,Calm,-,N/A,,Scattered Clouds,0,2013-05-26 13:56:00
4:56 AM,71.1,63.0,75,30.06,10.0,Calm,Calm,-,N/A,,Clear,0,2013-05-26 14:56:00
5:56 AM,69.1,63.0,81,30.07,10.0,SE,3.5,-,N/A,,Clear,130,2013-05-26 15:56:00
6:56 AM,72.0,63.0,73,30.09,10.0,East,3.5,-,N/A,,Clear,100,2013-05-26 16:56:00
7:56 AM,77.0,64.9,66,30.09,10.0,Calm,Calm,-,N/A,,Clear,0,2013-05-26 17:56:00
8:56 AM,79.0,64.9,62,30.09,10.0,Variable,5.8,-,N/A,,Clear,0,2013-05-26 18:56:00
9:56 AM,79.0,64.9,62,30.09,10.0,West,5.8,-,N/A,,Partly Cloudy,260,2013-05-26 19:56:00
10:56 AM,81.0,64.0,56,30.09,10.0,WNW,8.1,-,N/A,,Clear,290,2013-05-26 20:56:00
11:56 AM,82.9,64.9,54,30.08,10.0,WNW,11.5,-,N/A,,Clear,300,2013-05-26 21:56:00
12:56 PM,82.0,64.9,56,30.06,10.0,WNW,10.4,-,N/A,,Clear,300,2013-05-26 22:56:00
1:56 PM,82.0,64.0,54,30.05,10.0,WNW,5.8,-,N/A,,Clear,290,2013-05-26 23:56:00
2:56 PM,82.0,64.9,56,30.04,10.0,West,8.1,-,N/A,,Clear,260,2013-05-27 00:56:00
3:56 PM,82.9,66.0,56,30.02,10.0,West,10.4,-,N/A,,Clear,270,2013-05-27 01:56:00
4:56 PM,82.0,66.9,60,30.02,10.0,West,9.2,-,N/A,,Clear,270,2013-05-27 02:56:00
5:56 PM,80.1,64.9,60,30.03,10.0,SW,4.6,-,N/A,,Clear,230,2013-05-27 03:56:00
6:56 PM,80.1,66.9,64,30.04,10.0,SSW,10.4,-,N/A,,Clear,200,2013-05-27 04:56:00
7:56 PM,79.0,64.9,62,30.07,10.0,SW,5.8,-,N/A,,Clear,220,2013-05-27 05:56:00
8:56 PM,75.0,64.9,71,30.09,10.0,NE,4.6,-,N/A,,Clear,50,2013-05-27 06:56:00
9:56 PM,75.9,62.1,62,30.11,10.0,ESE,3.5,-,N/A,,Clear,110,2013-05-27 07:56:00
10:56 PM,73.9,60.1,62,30.12,10.0,ESE,3.5,-,N/A,,Clear,110,2013-05-27 08:56:00
11:56 PM,73.0,61.0,66,30.11,10.0,ENE,5.8,-,N/A,,Clear,60,2013-05-27 09:56:00